Location: Cambridge
(43.3830°N, 80.3170°W)
Time: 20:59:59
(UTC-05:00)

Envisat - Pass Details

Date: 29 October 2019
Orbit: 764 x 766 km, 98.1° (Epoch: 18 November)

Event Time Altitude Azimuth Distance (km) Brightness Sun altitude
Rises 19:34:49 0° 173° (S) 3,218 6.2 -14.7°
Reaches altitude 10° 19:37:08 10° 176° (S) 2,296 5.5 -15.1°
Maximum altitude 19:42:10 66° 258° (WSW) 836 3.4 -16.0°
Drops below altitude 10° 19:47:14 10° 341° (NNW) 2,311 5.7 -16.9°
Sets 19:49:34 0° 345° (NNW) 3,242 6.4 -17.3°
